DECAYED

STARLINK-4210, 52874 (Decayed)

Orbit data source: Space-Track

STARLINK-4210, 52874 was a payload satellite owned by SpaceX/Seattle (US) in LEO that was launched on Fri, 17 Jun 2022 UTC via an FALCON 9 launch vehicle from the Air Force Eastern Test Range (AFETR). Payload-class satellites include a variety of spacecraft equipped with specific instruments for various scientific and technological missions. These include communications satellites like Starlink; space stations such as the ISS; scientific satellites like the Hubble; Earth observation satellites from companies like Planet Labs, Umbra, and HawkEye 360; GPS; miniature CubeSats for education and research; and military/defense satellites.

Not visible in the next 10 days
Identifier
52874, 2022-062AW
Orbit
Decayed
Country
Flag of USUS
Related business
Manufacturer
SpaceX/Seattle
Mission
Decayed Commercial Communications
Bus & Motor
STARLINK, Unknown motor
Mass
297 kg wet, ~275 kg dry
Launch date (UTC)
2022-06-17 (4 years ago)
Launch vehicle
FALCON 9
Launch site
Air Force Eastern Test Range (AFETR)
Object type
Payload
Rocket body
Debris
Shape & HBR
Box + 1 Pan, 10.1 m
Radar Cross Section
13.562 m², Large (>1 m²)

Expand to show TLE details & history
Last TLE update: 8 months ago

TLE from 8 months ago
0 STARLINK-4210
1 52874U 22062AW  25290.04109190  .12258008  12462-4  26231-3 0  9992
2 52874  53.1978 259.1598 0006236 232.2638 127.7848 16.46402729184936
Epoch: 2025-10-17T00:59Z
TLE epoch observation values (Epoch: 2025-10-17T00:59:10.340Z)
Latitude
-0.00006°
Longitude
-141.42549°
Altitude
152.27 km
Speed
7.815 km/s
True Right ascension
17h 16m 38s
True Declination
0° 00' 00"
Sunlit
Object was in daylight at epoch
Visualization orbit readout
Latitude
Unknown
Longitude
Unknown
Altitude
Unknown
Speed
Unknown
Apparent Right ascension
Unknown
Apparent Declination
Unknown
Sunlit
N/A
Visualization observer readout
Local Sidereal Time
21:24:29
Azimuth
Unknown
Elevation
Unknown
Doppler factor
Unknown
Orbital elements
Apogee altitude
153.158 km
Perigee altitude
145.018 km
Semi-major axis
6,527.225 km
Eccentricity
0.00062
Inclination
53.1978°
RAAN
259.1598°
Arg. of periapsis
232.2638°
True anomaly
127.84125°
Mean anomaly
127.7848°
Eccentric anomaly
127.81303°
Mean motion
4.11576 °/min
Orbital period
87.47 mins
BSTAR
0.00026231
Loading maneuver chart data...
Computing Atmospheric mass density...
Loading historical data...
Loading historical data...
Loading historical data...
Loading historical data...
Loading historical data...
Loading historical data...
Loading historical data...

Documentation

Showing up to 5 results
|